Dewpoint
7 9 9 9 9 8 8 8 7 6 4 4 2 2 2 1 3 4 3 3 4 5 5 5 5 4 4 4 4 5 6 6 7 6 5 5 7 7 7 7 6 6 7
8 8 9 9 8 8 8 8 7 7 6 4 3 3 3 3 3 4 2 3 5 5 5 5 4 5 4 4 5 5 5 5 6 6 5 5 6 7 7 7 6 6 6
7 8 8 9 9 9 9 8 8 7 7 6 4 3 2 0 1 1 1 2 3 5 5 4 4 4 4 5 4 4 5 5 5 6 6 6 5 6 7 7 7 6 6
8 9 9 8 8 9 9 8 8 8 8 8 7 7 7 3 -1 -1 1 0 2 5 5 4 5 4 4 5 5 4 5 6 6 6 6 6 5 5 7 7 6 6 6
8 7 8 9 9 8 7 8 8 9 8 8 8 8 8 6 4 -0 -1 0 2 4 4 4 4 5 4 5 5 5 6 7 7 6 6 6 6 6 6 6 7 6 6
9 8 7 8 9 9 9 8 8 8 8 8 9 9 8 7 7 6 4 2 3 3 5 6 5 5 5 5 5 6 7 8 7 7 8 7 7 7 7 6 6 6 4
8 9 9 8 7 9 10 10 9 9 9 9 8 9 9 9 8 8 7 7 8 8 7 6 6 6 5 6 7 8 8 8 8 8 8 7 7 6 6 6 5 5 3
10 9 9 9 9 8 9 9 10 10 10 10 9 9 9 9 9 9 9 9 8 8 8 8 7 7 7 8 8 8 8 9 8 8 8 7 6 5 4 3 3 2 1
9 10 10 10 10 9 8 8 9 10 10 10 10 10 9 8 9 9 9 9 9 8 8 8 8 8 8 8 8 9 9 8 8 8 7 6 3 3 2 1 -0 -1 -2
7 7 7 9 10 10 10 9 9 9 10 10 9 9 9 9 9 9 9 9 9 9 9 9 9 8 8 8 8 8 8 7 6 3 1 0 0 -1 -1 -2 -3 -4 -5
7 7 7 7 8 10 10 10 10 10 10 10 10 10 10 10 10 9 10 9 9 9 9 9 8 8 8 8 8 7 6 3 -0 -1 -2 -3 -3 -4 -3 -3 -5 -8 -9
6 7 7 7 9 9 10 10 10 10 10 10 10 10 10 10 10 9 9 9 9 9 9 8 8 7 7 6 4 3 1 -1 -2 -3 -4 -4 -5 -6 -6 -7 -7 -7 -7
5 4 5 6 7 8 9 9 9 10 10 10 10 10 10 9 9 9 9 9 9 6 2 1 0 -2 -3 -3 -4 -4 -4 -4 -4 -4 -6 -6 -7 -7 -8 -8 -9 -9 -9
4 3 3 2 2 4 6 7 7 6 6 7 7 6 2 1 3 5 5 4 3 3 -1 -4 -5 -5 -4 -5 -5 -6 -6 -7 -7 -8 -8 -9 -9 -9 -9 -10 -10 -10 -11
2 3 3 2 2 2 2 2 2 2 1 -0 1 0 -1 -3 -4 -3 -1 -1 -2 -4 -5 -6 -6 -6 -7 -7 -8 -9 -8 -9 -8 -9 -9 -9 -10 -10 -11 -12 -13 -14 -15
2 2 1 1 1 -0 -1 -0 -0 -2 -2 -2 -2 -2 -5 -5 -6 -6 -6 -6 -6 -6 -6 -7 -8 -8 -8 -8 -9 -9 -9 -10 -10 -10 -10 -11 -12 -13 -15 -16 -16 -17 -17
0 0 -0 -1 -1 -2 -3 -4 -5 -6 -6 -6 -8 -8 -7 -7 -7 -7 -7 -7 -7 -6 -7 -9 -9 -10 -10 -11 -11 -11 -11 -12 -13 -14 -15 -16 -16 -17 -18 -20 -21 -20 -20
-3 -2 -2 -3 -4 -5 -6 -6 -7 -8 -8 -8 -8 -8 -8 -8 -8 -8 -7 -7 -8 -8 -9 -10 -10 -11 -11 -11 -12 -13 -13 -14 -15 -16 -17 -20 -21 -22 -23 -24 -23 -22 -22
-6 -6 -6 -6 -7 -7 -7 -8 -8 -9 -9 -9 -9 -9 -9 -8 -8 -8 -8 -8 -9 -10 -11 -11 -12 -12 -12 -13 -14 -15 -16 -17 -19 -21 -22 -23 -25 -26 -25 -23 -23 -22 -22
-8 -8 -7 -8 -8 -8 -8 -9 -9 -10 -10 -10 -10 -10 -10 -9 -9 -10 -10 -11 -11 -12 -13 -13 -13 -14 -15 -16 -17 -19 -21 -22 -23 -24 -24 -25 -24 -24 -24 -24 -23 -22 -21
-9 -9 -9 -9 -9 -9 -9 -10 -10 -11 -11 -11 -12 -11 -11 -11 -12 -12 -12 -13 -13 -14 -14 -15 -17 -19 -22 -24 -25 -26 -26 -27 -26 -26 -26 -26 -26 -25 -25 -23 -22 -22 -21
-9 -10 -10 -10 -10 -10 -11 -11 -11 -12 -12 -13 -13 -13 -13 -13 -14 -14 -15 -16 -16 -18 -20 -21 -23 -25 -26 -27 -28 -28 -28 -28 -27 -27 -27 -26 -26 -26 -25 -24 -23 -22 -22
-10 -10 -11 -12 -12 -12 -12 -13 -13 -13 -14 -14 -15 -15 -16 -19 -22 -24 -25 -25 -25 -26 -26 -27 -27 -27 -28 -28 -28 -28 -27 -27 -27 -27 -26 -26 -26 -25 -24 -24 -23 -23 -23
-11 -12 -12 -13 -13 -13 -14 -14 -15 -16 -17 -18 -20 -21 -22 -23 -24 -25 -26 -26 -27 -28 -28 -28 -28 -28 -28 -28 -27 -27 -26 -27 -27 -27 -27 -26 -25 -24 -23 -23 -23 -23 -22
-20 -19 -18 -18 -18 -18 -18 -18 -18 -18 -18 -19 -19 -20 -21 -23 -25 -26 -27 -28 -28 -28 -27 -27 -27 -27 -27 -27 -27 -27 -27 -27 -27 -27 -26 -25 -24 -23 -23 -23 -22 -22 -22
-22 -21 -20 -20 -20 -20 -20 -19 -19 -19 -20 -21 -21 -21 -22 -25 -26 -26 -26 -27 -27 -27 -26 -27 -27 -26 -27 -27 -27 -27 -27 -27 -26 -25 -24 -23 -23 -22 -22 -22 -22 -22 -22
Wind_Speed
30 35 34 35 33 29 33 34 36 45 46 41 45 46 51 49 47 45 44 46 44 42 41 38 40 39 38 38 37 37 39 38 42 42 41 42 43 44 42 40 32 34 36
30 29 37 38 37 34 34 33 37 38 43 46 45 47 48 49 49 50 50 49 48 48 47 46 43 40 42 43 43 44 45 43 44 45 43 44 45 42 44 36 30 31 35
31 31 30 37 41 41 39 37 36 38 40 46 49 50 50 50 52 53 55 55 55 54 51 50 47 48 51 51 51 49 47 48 48 47 48 45 42 45 40 37 40 37 39
30 32 34 34 36 42 43 41 41 41 41 44 48 51 53 54 55 58 58 58 58 58 56 57 59 55 52 50 50 51 49 48 46 46 46 46 43 45 41 45 41 39 45
28 35 37 36 35 34 39 44 44 45 45 45 47 47 50 54 55 58 62 61 61 61 61 61 60 55 52 55 52 51 51 50 50 50 50 50 49 47 51 47 47 42 47
32 33 36 37 37 40 39 40 42 45 47 46 47 49 49 52 54 56 57 60 61 62 61 57 54 52 51 53 51 49 50 53 53 52 51 49 53 52 52 50 50 50 47
35 34 35 40 41 41 41 40 43 45 45 49 49 48 50 52 53 53 54 55 56 56 55 55 54 54 52 50 47 49 53 55 56 49 53 51 50 54 50 50 52 50 44
33 37 34 36 40 43 42 45 46 46 46 46 49 50 52 55 53 52 52 52 52 53 54 55 56 55 53 51 51 51 54 52 51 50 53 49 51 45 39 36 38 36 32
3 11 21 32 39 39 42 44 45 48 50 51 49 50 51 52 52 52 50 51 54 56 58 59 58 56 52 50 47 43 46 48 48 50 50 47 39 32 28 24 24 24 21
14 14 13 17 28 42 39 39 43 45 47 47 47 48 50 50 50 51 50 51 53 57 59 60 61 59 55 54 53 55 51 49 43 35 26 20 20 18 18 18 17 12 8
17 19 19 15 13 28 36 40 41 44 43 43 46 48 49 50 51 51 50 49 50 52 54 56 57 57 53 52 52 47 40 34 22 17 15 15 14 9 9 9 7 7 9
19 20 22 18 15 11 24 28 34 38 41 42 45 46 48 48 49 47 46 46 48 51 55 54 51 50 52 46 36 28 24 25 21 17 15 11 9 6 4 4 8 9 10
17 19 22 23 18 17 12 13 16 24 34 38 39 43 43 41 41 43 46 46 42 30 26 26 26 18 16 20 21 23 22 18 15 16 12 12 3 1 1 5 10 10 13
13 14 16 21 25 21 15 11 9 8 11 20 24 26 17 18 21 27 28 25 23 26 23 21 17 20 21 20 22 18 16 11 15 14 12 9 5 2 4 7 10 11 13
12 10 12 15 16 18 18 18 20 18 11 9 8 9 4 0 11 6 6 13 17 21 25 27 25 21 20 23 18 17 16 13 9 10 8 6 2 2 5 8 10 12 13
9 8 9 9 11 14 17 17 12 13 16 13 8 6 21 20 20 19 24 25 29 28 29 29 28 20 20 19 14 14 12 8 7 6 4 2 2 4 6 9 12 13 14
6 6 5 8 11 13 16 21 27 29 30 31 32 32 34 35 31 28 28 27 22 21 26 25 25 20 19 17 14 10 8 6 4 4 3 4 6 7 8 10 12 14 15
8 8 9 11 13 16 20 25 29 32 34 35 31 30 24 28 26 24 22 21 23 20 22 18 18 15 13 11 9 7 5 2 2 4 4 5 7 9 11 12 12 14 16
13 14 15 17 19 22 24 27 29 30 30 30 26 25 21 22 21 20 17 19 21 20 17 16 14 12 10 7 5 3 2 2 4 5 6 7 8 9 8 9 11 12 13
17 17 17 21 23 24 26 27 26 25 26 24 23 21 16 14 17 19 18 18 18 17 14 12 9 7 5 3 2 1 2 3 4 5 6 7 7 8 9 9 9 10 10
18 19 19 21 21 22 22 22 22 21 21 20 19 14 10 13 16 15 14 13 11 9 8 6 5 3 2 2 0 1 2 3 4 5 6 6 7 7 7 6 6 8 11
16 17 18 20 19 20 20 19 18 17 17 16 15 13 9 11 12 12 11 9 8 6 5 3 3 3 2 1 2 3 4 4 4 5 5 6 7 7 7 7 8 9 9
14 15 16 17 17 17 17 15 15 14 13 12 10 9 8 9 9 9 9 9 7 5 4 3 2 2 3 2 2 3 4 5 5 5 6 6 7 7 8 8 8 7 7
11 11 12 13 12 12 12 12 12 11 10 10 9 9 9 9 8 8 6 5 5 4 3 3 3 3 2 2 4 4 4 5 7 7 7 6 6 7 7 7 6 7 10
10 10 11 11 11 11 11 11 10 10 10 8 8 7 6 5 7 7 5 3 3 4 5 7 7 6 6 5 4 4 5 6 6 6 6 6 5 6 7 8 9 11 12
10 10 11 10 10 9 9 8 8 7 6 5 4 3 2 3 5 4 4 6 6 6 6 6 7 7 7 7 6 7 7 7 6 6 5 4 5 7 8 9 8 10 12
Wind_Direction
210 209 211 219 217 220 222 220 224 224 225 224 220 218 222 224 227 228 230 229 232 233 236 242 241 242 250 248 246 252 258 258 256 270 278 282 276 276 278 272 260 263 257
219 218 212 212 221 222 224 227 226 230 232 228 228 225 225 226 228 228 228 231 233 236 241 245 247 249 254 255 253 256 260 264 267 268 274 281 283 282 292 261 266 269 260
228 224 222 216 216 224 224 225 228 229 234 235 233 235 233 232 231 229 231 234 239 243 244 244 248 254 262 260 257 259 264 267 267 266 273 276 287 284 285 260 269 267 263
230 232 232 229 226 222 226 227 230 231 232 235 235 239 240 237 235 235 235 238 242 244 246 250 255 258 259 258 258 260 264 265 266 271 275 279 280 280 274 271 257 264 260
223 233 239 239 238 236 231 231 230 232 235 236 238 241 239 240 241 239 239 242 244 248 252 256 259 257 259 258 261 262 264 264 268 272 272 272 267 275 266 265 257 259 252
228 228 234 242 242 239 237 235 234 234 235 237 238 239 238 237 239 240 242 245 248 250 253 253 253 255 255 259 261 260 263 265 270 272 273 269 273 276 269 259 257 246 236
247 240 231 233 240 243 240 238 239 237 236 239 240 241 241 241 243 242 242 244 249 251 251 251 252 253 255 256 256 255 258 262 264 267 271 266 272 272 267 260 251 245 234
242 247 249 240 237 236 238 240 241 241 240 238 241 240 243 247 248 248 247 244 245 248 251 253 254 256 256 255 255 253 254 254 257 264 256 259 266 257 254 254 252 244 236
74 222 238 245 247 238 236 242 242 238 239 242 243 243 244 248 250 251 249 246 244 247 249 251 252 252 252 252 254 253 252 253 253 258 263 265 252 253 248 242 232 223 213
334 324 319 266 249 246 247 247 245 243 244 243 246 248 249 249 249 249 247 247 245 244 245 248 250 253 254 256 258 258 255 253 248 247 246 240 238 225 215 206 204 206 209
356 336 314 312 292 236 241 249 249 246 245 241 241 241 244 245 245 247 246 244 245 248 250 250 251 251 251 251 248 243 241 232 221 209 194 184 187 184 192 203 216 224 234
2 0 348 314 327 269 239 241 242 244 245 242 242 241 240 240 242 244 245 244 245 245 245 244 244 246 246 241 234 225 214 201 182 164 149 146 151 154 187 223 243 245 248
8 14 14 355 339 328 301 259 237 232 232 234 233 236 236 233 230 236 239 242 240 234 219 211 203 190 172 165 156 158 156 155 152 148 142 133 136 124 331 283 271 273 276
3 11 11 11 13 357 337 318 289 271 254 229 222 217 214 210 216 221 220 215 213 212 184 155 130 128 130 127 126 131 123 124 132 127 127 120 156 211 264 268 279 292 293
350 6 17 23 21 24 16 7 356 335 342 328 246 215 191 213 93 131 168 165 150 141 132 127 125 118 118 109 102 109 110 120 117 113 118 125 155 257 276 288 297 299 303
347 11 39 45 51 62 61 59 46 58 63 65 65 112 110 96 97 104 101 104 115 124 126 121 116 117 109 108 118 110 99 101 94 83 69 40 342 315 312 311 311 312 315
9 32 52 72 79 83 86 90 97 90 92 96 97 98 104 112 112 114 117 115 116 122 109 108 109 114 114 112 105 96 94 82 59 55 20 338 322 320 323 323 321 319 316
65 83 90 91 94 100 104 106 105 102 102 97 99 98 100 105 105 109 111 118 114 111 106 114 113 117 114 112 114 113 110 75 21 23 8 353 338 332 328 324 322 319 317
86 89 99 106 109 112 112 110 108 108 105 106 108 110 114 113 115 117 118 106 102 103 109 114 115 120 121 119 109 100 73 31 358 343 332 333 327 326 319 313 315 319 325
100 104 109 113 116 117 118 118 115 114 111 106 103 102 102 102 101 97 97 102 109 115 121 119 121 124 123 116 95 31 332 323 323 319 322 329 328 324 318 314 317 321 326
104 108 111 112 113 115 116 114 114 113 109 105 99 100 104 104 103 102 102 104 108 116 118 119 120 118 110 96 24 295 294 315 337 341 345 340 331 323 318 312 307 308 312
103 105 109 111 115 116 115 116 114 110 105 103 102 100 99 100 106 111 112 116 119 123 124 120 112 106 81 45 2 339 342 351 356 356 347 343 337 326 325 321 314 308 317
99 104 105 103 104 108 109 107 106 105 105 101 97 96 95 91 93 96 98 101 109 123 121 110 72 67 53 23 334 339 352 347 345 347 345 344 339 337 337 341 336 337 338
97 103 105 106 107 105 103 101 99 99 100 99 99 95 90 91 91 88 83 75 74 82 82 86 80 62 37 9 355 355 341 335 339 339 334 339 348 347 335 329 323 315 319
97 102 106 107 108 108 110 109 108 107 105 99 93 86 76 68 68 80 95 91 40 28 30 28 25 17 8 9 348 336 339 339 330 330 338 342 338 330 328 323 319 326 326
90 97 98 100 100 101 105 110 109 105 100 98 96 91 46 37 51 62 54 27 16 10 3 357 356 350 344 345 339 337 338 333 333 328 323 323 328 325 319 317 319 319 326
Height
1424 1429 1434 1437 1441 1446 1449 1453 1457 1461 1465 1469 1473 1478 1482 1487 1491 1495 1498 1501 1503 1506 1509 1512 1514 1516 1519 1520 1521 1523 1523 1524 1521 1521 1521 1521 1520 1518 1517 1515 1514 1514 1515
1421 1424 1429 1433 1436 1439 1443 1447 1451 1455 1459 1463 1466 1471 1475 1479 1483 1486 1489 1492 1495 1497 1501 1504 1504 1507 1510 1511 1513 1514 1515 1515 1514 1512 1512 1511 1510 1510 1509 1505 1506 1507 1508
1415 1420 1423 1427 1430 1432 1436 1440 1444 1447 1450 1455 1458 1460 1465 1469 1472 1476 1480 1484 1486 1488 1491 1493 1495 1498 1498 1500 1501 1502 1504 1504 1503 1502 1501 1501 1500 1500 1500 1498 1497 1497 1498
1409 1413 1416 1419 1422 1426 1430 1433 1436 1439 1443 1444 1447 1451 1454 1459 1463 1466 1469 1472 1475 1477 1480 1483 1484 1486 1488 1490 1491 1492 1493 1493 1493 1493 1492 1491 1490 1490 1489 1490 1488 1487 1487
1404 1405 1406 1412 1417 1421 1424 1426 1430 1432 1433 1437 1440 1442 1445 1447 1450 1454 1458 1461 1463 1466 1468 1470 1472 1473 1476 1477 1480 1481 1482 1482 1482 1481 1480 1478 1478 1478 1476 1476 1477 1478 1476
1399 1401 1403 1403 1407 1410 1415 1418 1422 1423 1426 1429 1429 1432 1435 1436 1437 1442 1448 1451 1454 1456 1457 1457 1459 1462 1464 1467 1469 1471 1472 1472 1471 1470 1468 1466 1463 1464 1464 1463 1465 1462 1463
1394 1396 1399 1400 1399 1401 1406 1410 1411 1414 1420 1420 1423 1427 1426 1428 1430 1434 1438 1442 1444 1445 1445 1447 1448 1449 1452 1455 1458 1461 1461 1459 1458 1459 1455 1454 1453 1451 1453 1452 1451 1450 1453
1394 1393 1392 1394 1395 1398 1400 1400 1403 1407 1409 1412 1414 1415 1419 1419 1422 1427 1431 1435 1435 1435 1437 1437 1438 1440 1442 1446 1448 1448 1447 1445 1444 1446 1443 1440 1441 1440 1443 1444 1447 1450 1450
1389 1389 1391 1394 1390 1390 1391 1391 1394 1398 1401 1402 1405 1408 1408 1409 1413 1417 1423 1424 1425 1426 1427 1427 1429 1431 1433 1436 1436 1435 1434 1432 1430 1433 1431 1430 1430 1432 1433 1435 1442 1443 1442
1387 1387 1386 1385 1384 1384 1383 1384 1386 1388 1390 1394 1397 1398 1400 1401 1404 1406 1410 1412 1413 1412 1414 1415 1416 1418 1421 1423 1424 1423 1422 1422 1418 1417 1419 1423 1427 1427 1429 1430 1435 1439 1440
1384 1383 1382 1379 1377 1375 1377 1381 1381 1382 1384 1386 1387 1388 1390 1391 1393 1396 1399 1401 1401 1403 1404 1403 1404 1405 1408 1409 1409 1408 1408 1408 1409 1412 1417 1419 1420 1428 1430 1432 1435 1436 1437
1383 1380 1377 1375 1372 1369 1369 1372 1375 1375 1376 1376 1378 1379 1379 1380 1381 1383 1386 1388 1389 1390 1390 1391 1391 1392 1394 1395 1395 1396 1397 1400 1401 1407 1411 1421 1422 1424 1429 1432 1437 1437 1436
1383 1379 1375 1374 1370 1368 1367 1366 1366 1368 1367 1369 1369 1370 1368 1369 1366 1369 1372 1375 1377 1379 1379 1379 1377 1381 1389 1388 1390 1393 1396 1403 1407 1403 1410 1404 1421 1424 1425 1430 1436 1432 1434
1383 1379 1375 1373 1370 1367 1368 1365 1365 1364 1363 1361 1360 1359 1364 1362 1360 1357 1358 1360 1364 1366 1370 1373 1388 1391 1386 1396 1385 1399 1400 1412 1401 1405 1411 1409 1417 1418 1421 1427 1430 1425 1427
1383 1379 1376 1373 1371 1369 1365 1366 1367 1368 1362 1365 1361 1359 1364 1375 1358 1368 1366 1361 1362 1373 1375 1373 1385 1392 1399 1389 1399 1403 1403 1408 1414 1408 1410 1410 1416 1419 1421 1423 1421 1421 1422
1384 1381 1378 1376 1374 1372 1370 1365 1364 1372 1366 1369 1368 1366 1365 1364 1368 1369 1370 1379 1374 1381 1381 1383 1385 1400 1392 1393 1406 1404 1406 1413 1416 1411 1412 1413 1415 1417 1418 1419 1419 1418 1418
1385 1382 1381 1380 1378 1376 1374 1375 1373 1374 1375 1371 1378 1381 1369 1371 1378 1381 1378 1377 1390 1391 1388 1392 1390 1401 1402 1404 1405 1408 1412 1413 1412 1410 1413 1414 1414 1414 1415 1415 1416 1415 1414
1387 1385 1383 1382 1382 1381 1381 1381 1381 1382 1381 1379 1381 1376 1391 1380 1381 1382 1386 1391 1388 1394 1388 1402 1400 1405 1407 1406 1407 1408 1411 1412 1412 1410 1411 1410 1411 1413 1412 1413 1413 1413 1412
1392 1389 1387 1385 1385 1386 1387 1387 1389 1390 1390 1387 1391 1388 1395 1391 1391 1391 1393 1392 1391 1394 1401 1405 1404 1407 1409 1409 1409 1410 1410 1410 1411 1411 1411 1408 1410 1410 1410 1411 1411 1410 1409
1395 1395 1394 1391 1392 1391 1392 1392 1394 1397 1396 1397 1397 1398 1398 1395 1397 1394 1395 1396 1398 1403 1406 1406 1407 1408 1409 1410 1408 1409 1411 1411 1410 1411 1410 1408 1408 1409 1408 1408 1408 1407 1407
1401 1401 1400 1398 1398 1397 1398 1399 1400 1400 1399 1401 1400 1400 1403 1401 1401 1403 1402 1403 1405 1407 1408 1408 1409 1411 1410 1408 1409 1410 1410 1409 1408 1408 1408 1407 1407 1407 1406 1406 1406 1406 1406
1407 1406 1406 1404 1404 1402 1403 1404 1404 1404 1405 1406 1406 1405 1408 1407 1406 1407 1408 1409 1410 1411 1410 1413 1412 1411 1408 1408 1409 1409 1408 1408 1406 1406 1407 1406 1406 1406 1404 1404 1404 1405 1403
1410 1410 1411 1410 1410 1409 1409 1409 1409 1409 1409 1409 1409 1410 1411 1412 1411 1410 1410 1411 1412 1413 1411 1411 1411 1409 1407 1406 1407 1408 1406 1405 1405 1405 1404 1404 1405 1404 1404 1401 1402 1402 1402
1414 1413 1413 1413 1413 1412 1412 1412 1412 1412 1412 1412 1412 1412 1412 1414 1414 1412 1412 1413 1413 1412 1411 1410 1409 1407 1405 1406 1407 1406 1404 1403 1404 1403 1404 1403 1403 1402 1402 1401 1400 1401 1401
1416 1416 1416 1416 1416 1415 1415 1415 1416 1416 1415 1415 1414 1414 1414 1414 1414 1414 1414 1414 1412 1411 1409 1407 1405 1404 1405 1406 1406 1405 1403 1403 1403 1403 1402 1401 1402 1402 1401 1400 1400 1399 1398
1420 1419 1418 1419 1418 1418 1418 1418 1418 1418 1416 1416 1416 1416 1415 1414 1415 1415 1414 1411 1410 1409 1408 1406 1405 1405 1405 1405 1404 1403 1403 1402 1401 1401 1401 1401 1401 1400 1399 1398 1397 1396 1394